User: anonymous   Login
Location: Albany
(35.0000°S, 118.0000°E)
Time: 15:18:39
(UTC-04:00)
Language:

Cosmos 1346 Rocket - Orbit

View from above orbital plane
View from above orbital plane
View from above satellite
View from above satellite

Ground track
Ground track

The orbit data is extracted from the following two-line orbital elements,

1 13121U 82027B   18170.88985191 +.00000903 +00000-0 +55756-4 0  9997
2 13121 081.1651 056.6943 0029487 032.0991 328.2021 15.08549325972120
Epoch (UTC): 19 June 2018 21:21:23
Eccentricity: 0.0029487
inclination: 81.1651°
perigee height: 520 km
apogee height: 561 km
right ascension of ascending node: 56.6943°
argument of perigee: 32.0991°
revolutions per day: 15.08549325
mean anomaly at epoch: 328.2021°
orbit number at epoch: 97212

The dashed part of the orbit path shows where the satellite is in the earth's shadow,  

DLR